Vicksburg, LA

1:37 AM CST on December 17, 2017 (GMT -0600)
Vicksburg Tallulah Regional

Weather History for KTVR - February, 2014

Change the Weather History Date:

Saturday, February 8, 2014

  Actual Average Record
Temperature  
Mean Temperature 44 °F 48 °F  
Max Temperature 55 °F 58 °F 82 °F (2017)
Min Temperature 32 °F 38 °F 21 °F (1954)
Degree Days  
Heating Degree Days 21 17  
Month to date heating degree days 180 141  
Since 1 July heating degree days 2073 1685  
Cooling Degree Days 0 0  
Month to date cooling degree days 0 0  
Year to date cooling degree days 0 3  
Moisture  
Dew Point 35 °F    
Average Humidity 78    
Maximum Humidity 96    
Minimum Humidity 59    
Precipitation  
Precipitation 0.05 in 0.19 in 1.38 in (1948)
Month to date precipitation 1.80 1.39  
Year to date precipitation 4.06 6.46  
Sea Level Pressure  
Sea Level Pressure 30.24 in    
Wind  
Wind Speed 3 mph (NNE)    
Max Wind Speed 10 mph    
Max Gust Speed 12 mph    
Visibility 7 miles    
Events      
T = Trace of Precipitation, MM = Missing Value Source: NWS Daily Summary

Daily Weather History Graph

Daily Weather History Graph

Search for Another Location

Airport or City:

Trip Planner

Search our weather history database for the weather conditions in past years. The results will help you decide how hot, cold, wet, or windy it might be!

Date:

Astronomy

Feb. 08, 2014 Rise Set
Actual Time 6:53 AM CST 5:44 PM CST
Civil Twilight 6:27 AM CST 6:09 PM CST
Nautical Twilight 5:58 AM CST 6:38 PM CST
Astronomical Twilight 5:29 AM CST 7:07 PM CST
Moon 12:43 PM CST (2/8) 2:01 AM CST (2/8)
Length of Visible Light 11h 41m
Length of Day
10h 50m
Waxing Gibbous, 69% of the Moon is Illuminated
Feb 8
Waxing Gibbous
Feb 14
Full
Feb 22
Last Quarter
Mar 1
New
Mar 8
First Quarter

Hourly Weather History & Observations

Time (CST) Temp. Windchill Dew Point Humidity Pressure Visibility Wind Dir Wind Speed Gust Speed Precip Events Conditions
12:53 AM 33.1 °F 26.1 °F 30.0 °F 89% 30.30 in 7.0 mi East 8.1 mph - 0.05 in   Overcast
1:53 AM 33.1 °F 28.7 °F 30.0 °F 89% 30.28 in 8.0 mi ENE 4.6 mph - 0.00 in   Mostly Cloudy
2:53 AM 32.0 °F 28.7 °F 30.0 °F 92% 30.26 in 5.0 mi NNE 3.5 mph - N/A   Mostly Cloudy
3:53 AM 33.1 °F - 30.9 °F 92% 30.27 in 5.0 mi Calm Calm - N/A   Overcast
4:53 AM 33.1 °F - 32.0 °F 96% 30.26 in 5.0 mi Calm Calm - N/A   Overcast
5:53 AM 34.0 °F - 32.0 °F 92% 30.28 in 5.0 mi Calm Calm - N/A   Overcast
6:53 AM 34.0 °F 31.0 °F 32.0 °F 92% 30.29 in 5.0 mi North 3.5 mph - N/A   Overcast
7:53 AM 35.1 °F 32.2 °F 33.1 °F 92% 30.29 in 5.0 mi North 3.5 mph - N/A   Overcast
8:53 AM 37.0 °F 33.3 °F 34.0 °F 89% 30.31 in 7.0 mi North 4.6 mph - N/A   Overcast
9:51 AM 39.2 °F 35.0 °F 35.6 °F 87% 30.29 in 7.0 mi Variable 5.8 mph - N/A   Overcast
9:53 AM 37.9 °F 33.5 °F 35.1 °F 89% 30.31 in 7.0 mi North 5.8 mph - N/A   Overcast
10:53 AM 42.1 °F - 36.0 °F 79% 30.29 in 8.0 mi Calm Calm - N/A   Overcast
11:53 AM 44.1 °F 42.5 °F 37.0 °F 76% 30.28 in 10.0 mi NE 3.5 mph - N/A   Overcast
12:53 PM 45.0 °F 43.5 °F 37.9 °F 76% 30.24 in 10.0 mi Variable 3.5 mph - N/A   Overcast
1:53 PM 48.0 °F - 39.0 °F 71% 30.21 in 10.0 mi SSE 4.6 mph - N/A   Overcast
2:53 PM 50.0 °F - 39.9 °F 68% 30.19 in 10.0 mi Variable 3.5 mph - N/A   Scattered Clouds
3:53 PM 53.1 °F - 39.9 °F 61% 30.18 in 10.0 mi Variable 4.6 mph - N/A   Scattered Clouds
4:53 PM 52.0 °F - 39.9 °F 63% 30.18 in 10.0 mi NNW 6.9 mph - N/A   Clear
5:53 PM 46.9 °F - 39.9 °F 77% 30.17 in 10.0 mi NW 3.5 mph - N/A   Clear
6:53 PM 39.0 °F 36.8 °F 37.9 °F 96% 30.19 in 10.0 mi NNE 3.5 mph - N/A   Clear
7:53 PM 37.0 °F 33.3 °F 35.1 °F 93% 30.19 in 6.0 mi North 4.6 mph - N/A   Clear
8:53 PM 37.9 °F 35.5 °F 36.0 °F 93% 30.19 in 8.0 mi NE 3.5 mph - N/A   Clear
9:53 PM 39.9 °F - 37.0 °F 89% 30.17 in 8.0 mi Calm Calm - N/A   Clear
10:53 PM 37.9 °F 35.5 °F 36.0 °F 93% 30.17 in 6.0 mi South 3.5 mph - N/A   Clear
11:53 PM 35.1 °F - 34.0 °F 96% 30.16 in 4.0 mi Calm Calm - N/A   Clear